Find Starlink 4140

NORAD ID: 53259 Int'l Des: 2022-086 Owner: SPXS Country: US Constellation: starlink operational
LEOCIRCULAR

現在のビュー

3D地球を読み込み中...

About Starlink 4140

Starlink 4140 (NORAD 53259) is a starlink constellation satellite (v1.5) launched Jul 24, 2022 by SPXS of US. It operates in LEO, CIRCULAR orbit with a mass of 297.00 kg.

Starlink 4140について

説明を読み込み中...

次回通過

Passes for default location (London). Set your location on the main map for personalized predictions.

高度履歴

Loading altitude history...

軌道要素

1 53259U 22086T 26166.54617906 .00001398 00000-0 10592-3 0 9992
2 53259 53.1613 114.3843 0001497 73.9089 286.2068 15.08836176215843
Epoch: Jun 15, 2026 • Age: 7 hours

現在のステータス

高度 555.6 km
速度 7.58 km/s
衛星直下点 -44.10°S, 127.18°E
打ち上げ日 Jul 24, 2022
運用期間 3.8 years
タイプ internet

技術仕様

分類 Payload
質量 297.00 kg
乾燥質量 275.00 kg
総質量 297.00 kg
長さ 0.20 m
直径 2.80 m
スパン 9.00 m
形状 Box + pan
製造者 SPXS
バスタイプ Starlink
フェーズステータス In Orbit
所有者/国 SPXS/US

Most Searched